DW6064 Weather Reports


time (UTC)temp
C
wind
direction
speed
KPH
gust
KPH
rain 1hr
cm
rain 24hr
cm
rain mn
cm
humidity
%
barometer
mb
20260503200034 17 306 6.4 20.9 0.00 0.00 0.00 32 1013.1
20260503195528 17 265 12.9 20.9 0.00 0.00 0.00 33 1013.1
20260503195044 17 286 8.0 19.3 0.00 0.00 0.00 32 1013.3
20260503194604 17 292 8.0 20.9 0.00 0.00 0.00 32 1013.4
20260503194105 17 329 12.9 22.5 0.00 0.00 0.00 31 1013.4
20260503193541 18 259 11.3 22.5 0.00 0.00 0.00 32 1013.5
20260503193042 18 267 11.3 29.0 0.00 0.00 0.00 30 1013.6
20260503192536 18 262 11.3 29.0 0.00 0.00 0.00 31 1013.7
20260503192033 18 281 14.5 30.6 0.00 0.00 0.00 32 1013.7
20260503191527 18 306 14.5 30.6 0.00 0.00 0.00 31 1013.8
20260503191106 18 296 17.7 25.7 0.00 0.00 0.00 30 1013.7
20260503190602 18 242 11.3 27.4 0.00 0.00 0.00 31 1013.8
20260503190038 18 32 9.7 27.4 0.00 0.00 0.00 32 1013.8
20260503185539 17 324 17.7 29.0 0.00 0.00 0.00 33 1013.9
20260503185041 18 335 14.5 29.0 0.00 0.00 0.00 30 1014.1
20260503184536 18 292 11.3 29.0 0.00 0.00 0.00 33 1014.0
20260503184033 17 315 6.4 32.2 0.00 0.00 0.00 31 1014.1
20260503183529 17 269 14.5 32.2 0.00 0.00 0.00 34 1014.2
20260503183025 17 275 12.9 29.0 0.00 0.00 0.00 32 1014.1
20260503182538 17 292 14.5 29.0 0.00 0.00 0.00 31 1014.2
20260503182034 17 265 9.7 24.1 0.00 0.00 0.00 33 1014.2
20260503181529 17 279 14.5 30.6 0.00 0.00 0.00 34 1014.2
20260503181025 17 293 11.3 30.6 0.00 0.00 0.00 30 1014.3
20260503180543 17 322 12.9 27.4 0.00 0.00 0.00 28 1014.4
20260503180037 17 328 16.1 25.7 0.00 0.00 0.00 30 1014.3
20260503175558 17 318 9.7 24.1 0.00 0.00 0.00 29 1014.2
20260503175100 17 328 8.0 20.9 0.00 0.00 0.00 35 1014.3
20260503174540 16 329 9.7 25.7 0.00 0.00 0.00 33 1014.4
20260503174103 16 286 9.7 25.7 0.00 0.00 0.00 32 1014.4
20260503173541 16 248 11.3 41.8 0.00 0.00 0.00 35 1014.5
20260503173042 16 269 20.9 41.8 0.00 0.00 0.00 33 1014.4
20260503172537 16 264 19.3 33.8 0.00 0.00 0.00 32 1014.4
20260503172059 16 235 19.3 33.8 0.00 0.00 0.00 34 1014.5
20260503171538 16 234 11.3 29.0 0.00 0.00 0.00 33 1014.6
20260503171040 16 290 9.7 29.0 0.00 0.00 0.00 34 1014.7
20260503170540 16 252 16.1 35.4 0.00 0.00 0.00 31 1014.7
20260503150538 11 288 8.0 19.3 0.00 0.00 0.00 44 1015.8
20260503131026 8 316 11.3 25.7 0.00 0.00 0.00 53 1015.9
20260503130546 8 329 16.1 25.7 0.00 0.00 0.00 52 1016.0
20260503110534 3 294 3.2 11.3 0.00 0.00 0.00 70 1015.6
20260503081537 3 275 1.6 4.8 0.00 0.00 0.00 70 1013.9
20260503081034 3 292 0.0 4.8 0.00 0.00 0.00 69 1013.9
20260503080553 3 292 1.6 4.8 0.00 0.00 0.00 70 1013.8
20260503072552 3 234 1.6 4.8 0.00 0.00 0.00 68 1013.6
20260503072028 4 273 1.6 4.8 0.00 0.00 0.00 68 1013.5
20260503071545 4 273 0.0 9.7 0.00 0.00 0.00 68 1013.5
20260503071042 4 261 3.2 9.7 0.00 0.00 0.00 67 1013.5
20260503070541 4 286 1.6 3.2 0.00 0.00 0.00 68 1013.4
20260503055033 5 290 4.8 9.7 0.00 0.00 0.00 65 1013.4
20260503054525 5 297 4.8 9.7 0.00 0.00 0.00 65 1013.3
20260503054045 5 298 1.6 8.0 0.00 0.00 0.00 65 1013.4
20260503053536 5 288 4.8 14.5 0.00 0.00 0.00 65 1013.4
20260503053033 5 307 4.8 14.5 0.00 0.00 0.00 65 1013.4
20260503052526 5 315 4.8 16.1 0.00 0.00 0.00 65 1013.4
20260503052044 6 285 4.8 16.1 0.00 0.00 0.00 65 1013.5
20260503051536 6 306 6.4 14.5 0.00 0.00 0.00 66 1013.6
20260503051041 6 292 6.4 12.9 0.00 0.00 0.00 67 1013.5
20260503050539 6 336 6.4 12.9 0.00 0.00 0.00 67 1013.4
20260503050042 6 321 4.8 8.0 0.00 0.00 0.00 66 1013.4
20260503045537 6 342 4.8 8.0 0.00 0.00 0.00 66 1013.4
20260503045041 6 319 4.8 9.7 0.00 0.00 0.00 65 1013.5
20260503044540 6 351 3.2 9.7 0.00 0.00 0.00 65 1013.5
20260503044034 6 311 4.8 9.7 0.00 0.00 0.00 65 1013.5
20260503043553 6 342 4.8 12.9 0.00 0.00 0.00 65 1013.5
20260503043028 6 355 3.2 14.5 0.00 0.00 0.00 65 1013.6
20260503042543 6 309 9.7 14.5 0.00 0.00 0.00 65 1013.8
20260503042042 6 313 9.7 14.5 0.00 0.00 0.00 65 1013.7
20260503041542 6 308 4.8 8.0 0.00 0.00 0.00 65 1013.8
20260503041043 6 301 3.2 8.0 0.00 0.00 0.00 66 1013.9
20260503040533 6 278 4.8 8.0 0.00 0.00 0.00 65 1013.9
20260503040032 6 300 1.6 4.8 0.00 0.00 0.00 64 1013.8
20260503035525 6 300 1.6 6.4 0.00 0.00 0.00 64 1013.9
20260503035059 7 299 3.2 6.4 0.00 0.00 0.00 64 1014.0
20260503034542 7 302 3.2 11.3 0.00 0.00 0.00 63 1014.0
20260503034105 7 284 4.8 11.3 0.00 0.00 0.00 63 1014.0
20260503033543 7 321 3.2 9.7 0.00 0.00 0.00 63 1014.0
20260503033105 7 288 4.8 9.7 0.00 0.00 0.00 62 1014.0
20260503032542 7 316 4.8 6.4 0.00 0.00 0.00 61 1014.0
20260503032041 7 309 4.8 12.9 0.00 0.00 0.00 61 1013.9
20260503031538 8 318 6.4 14.5 0.00 0.00 0.00 60 1013.9
20260503031033 8 309 4.8 16.1 0.00 0.00 0.00 59 1013.8
20260503030529 8 338 4.8 17.7 0.00 0.00 0.00 59 1013.8
20260503030024 8 338 6.4 17.7 0.00 0.00 0.00 60 1013.9
20260503025602 8 327 8.0 22.5 0.00 0.00 0.00 59 1013.9
20260503025041 8 309 6.4 24.1 0.00 0.00 0.00 58 1013.7
20260503024533 8 26 9.7 24.1 0.00 0.00 0.00 59 1013.6
20260503024028 8 32 9.7 20.9 0.00 0.00 0.00 59 1013.8
20260503023542 8 333 6.4 17.7 0.00 0.00 0.00 59 1013.9
20260503023103 8 355 8.0 17.7 0.00 0.00 0.00 59 1013.9
20260503022541 8 346 4.8 16.1 0.00 0.00 0.00 59 1014.0
20260503022036 8 355 4.8 14.5 0.00 0.00 0.00 59 1014.0
20260503021531 8 321 6.4 14.5 0.00 0.00 0.00 58 1014.0
20260503021030 8 9 4.8 16.1 0.00 0.00 0.00 58 1014.1
20260503020600 8 309 11.3 16.1 0.00 0.00 0.00 58 1014.1
20260503020044 8 326 11.3 16.1 0.00 0.00 0.00 57 1014.1
20260503015542 8 319 8.0 19.3 0.00 0.00 0.00 57 1014.1
20260503015042 8 321 9.7 19.3 0.00 0.00 0.00 56 1014.1
20260503014542 8 315 11.3 17.7 0.00 0.00 0.00 56 1014.1
20260503014040 8 321 9.7 22.5 0.00 0.00 0.00 56 1014.1
20260503013539 8 327 8.0 24.1 0.00 0.00 0.00 56 1014.0
20260503013036 9 336 9.7 24.1 0.00 0.00 0.00 55 1013.9
20260503012530 9 340 6.4 20.9 0.00 0.00 0.00 55 1013.9
20260503012024 9 355 11.3 20.9 0.00 0.00 0.00 55 1013.7
20260503011602 9 13 9.7 20.9 0.00 0.00 0.00 55 1013.5
20260503011040 9 43 9.7 20.9 0.00 0.00 0.00 56 1013.5
20260503010541 9 34 9.7 27.4 0.00 0.00 0.00 55 1013.5
20260503010043 9 346 9.7 27.4 0.00 0.00 0.00 54 1013.5
20260503005533 10 327 8.0 22.5 0.00 0.00 0.00 54 1013.4
20260503005056 10 318 11.3 22.5 0.00 0.00 0.00 54 1013.1
20260503004530 10 15 9.7 20.9 0.00 0.00 0.00 54 1013.2
20260503004024 10 313 4.8 20.9 0.00 0.00 0.00 53 1013.1
20260503003535 10 323 12.9 24.1 0.00 0.00 0.00 53 1013.1
20260503003029 10 321 14.5 24.1 0.00 0.00 0.00 53 1013.2
20260503002539 10 344 11.3 24.1 0.00 0.00 0.00 52 1013.1
20260503002057 10 334 12.9 20.9 0.00 0.00 0.00 52 1013.0
20260503001527 10 333 4.8 19.3 0.00 0.00 0.00 53 1013.1
20260503001042 10 360 9.7 19.3 0.00 0.00 0.00 53 1012.9
20260503000539 11 5 9.7 19.3 0.00 0.00 0.00 53 1012.9
20260503000038 11 23 8.0 20.9 0.00 0.00 0.00 52 1012.9
20260502235534 11 321 11.3 20.9 0.00 0.00 0.00 52 1012.9
20260502235031 11 342 6.4 16.1 0.00 0.00 0.00 52 1012.8
20260502234548 11 327 6.4 19.3 0.00 0.00 0.00 52 1012.8
20260502234045 11 300 11.3 19.3 0.00 0.00 0.00 51 1012.8
20260502233532 11 292 8.0 20.9 0.00 0.00 0.00 51 1012.7
20260502233025 11 343 12.9 22.5 0.00 0.00 0.00 50 1012.7
20260502232535 11 318 14.5 24.1 0.00 0.00 0.00 50 1012.6
20260502232026 11 311 14.5 24.1 0.00 0.00 0.00 50 1012.5
20260502231541 11 341 11.3 25.7 0.00 0.00 0.00 49 1012.5
20260502231035 11 325 16.1 29.0 0.00 0.00 0.00 49 1012.5
20260502230526 12 333 19.3 29.0 0.00 0.00 0.00 48 1012.4
20260502230047 12 286 14.5 27.4 0.00 0.00 0.00 47 1012.4
20260502225543 12 315 14.5 22.5 0.00 0.00 0.00 45 1012.4
20260502225036 12 331 8.0 22.5 0.00 0.00 0.00 45 1012.3
20260502224531 12 309 16.1 22.5 0.00 0.00 0.00 44 1012.2
20260502224050 12 350 9.7 22.5 0.00 0.00 0.00 44 1012.1
20260502223541 13 342 6.4 20.9 0.00 0.00 0.00 45 1012.0
20260502223040 13 319 12.9 20.9 0.00 0.00 0.00 44 1012.1
20260502222542 13 313 11.3 20.9 0.00 0.00 0.00 44 1012.0
20260502222043 13 338 9.7 19.3 0.00 0.00 0.00 44 1011.9
20260502221536 13 313 11.3 19.3 0.00 0.00 0.00 42 1012.0
20260502221032 13 333 8.0 17.7 0.00 0.00 0.00 43 1011.9
20260502220526 13 331 6.4 22.5 0.00 0.00 0.00 42 1012.0
20260502220105 13 298 9.7 22.5 0.00 0.00 0.00 42 1012.0
20260502215543 13 338 8.0 17.7 0.00 0.00 0.00 42 1012.0
20260502215042 13 291 11.3 17.7 0.00 0.00 0.00 41 1012.1
20260502214558 13 300 3.2 19.3 0.00 0.00 0.00 41 1012.0
20260502214035 13 318 8.0 17.7 0.00 0.00 0.00 42 1012.1
20260502213529 13 329 9.7 20.9 0.00 0.00 0.00 39 1012.1
20260502213025 13 280 9.7 24.1 0.00 0.00 0.00 40 1012.1
20260502212537 14 304 12.9 24.1 0.00 0.00 0.00 39 1012.0
20260502212056 14 296 14.5 22.5 0.00 0.00 0.00 40 1011.8
20260502211531 15 252 6.4 25.7 0.00 0.00 0.00 39 1011.8
20260502211024 15 342 12.9 25.7 0.00 0.00 0.00 38 1011.7
20260502210602 15 355 11.3 17.7 0.00 0.00 0.00 41 1011.7
20260502210037 14 295 11.3 24.1 0.00 0.00 0.00 41 1011.7
20260502205540 14 271 9.7 24.1 0.00 0.00 0.00 39 1011.7
20260502205033 14 246 11.3 19.3 0.00 0.00 0.00 41 1011.7
20260502204525 14 257 9.7 17.7 0.00 0.00 0.00 41 1011.7
20260502204044 14 292 11.3 17.7 0.00 0.00 0.00 42 1011.8
20260502203540 14 300 9.7 20.9 0.00 0.00 0.00 40 1011.8
20260502203040 14 327 11.3 25.7 0.00 0.00 0.00 41 1011.7
20260502202539 14 329 12.9 25.7 0.00 0.00 0.00 41 1011.8
20260502202040 14 355 9.7 22.5 0.00 0.00 0.00 40 1011.8
20260502201539 14 284 12.9 19.3 0.00 0.00 0.00 42 1011.8
20260502201038 14 10 6.4 20.9 0.00 0.00 0.00 43 1011.8
20260502200525 14 332 9.7 20.9 0.00 0.00 0.00 42 1011.9